Location: Newark
(39.5667°N, 8.9833°E)
Time: 03:32:49
(UTC+00:00)

Transit 2A Rocket - Visible Passes

Search period start: 17 October 2019 00:00
Search period end: 27 October 2019 00:00
Orbit: 593 x 910 km, 66.7° (Epoch: 15 October)

Date Brightness Start Highest point End Pass type
(mag) Time Alt. Az. Time Alt. Az. Time Alt. Az.
17 Oct 7.1 03:53:29 10° SSE 03:57:46 26° ESE 04:01:46 10° NE visible
18 Oct 7.8 03:12:49 10° SE 03:15:27 14° ESE 03:18:00 10° ENE visible
18 Oct 4.8 04:52:22 10° SW 04:57:34 68° WNW 05:02:20 10° NNE visible
19 Oct 5.2 04:09:51 10° SSW 04:15:04 68° ESE 04:19:50 10° NE visible
20 Oct 6.2 03:27:49 10° S 03:32:37 37° ESE 03:37:04 10° NE visible
20 Oct 5.8 05:10:55 10° WSW 05:15:13 27° NW 05:19:14 10° N visible
21 Oct 7.1 02:48:19 17° SE 02:50:16 21° ESE 02:53:51 10° ENE visible
21 Oct 5.1 04:28:20 14° SW 04:32:33 46° WNW 04:37:06 10° NNE visible
22 Oct 7.8 02:08:24 11° E 02:08:24 11° E 02:09:17 10° E visible
22 Oct 4.7 03:48:24 44° SW 03:50:00 82° WNW 03:54:46 10° NNE visible
23 Oct 5.6 03:08:09 51° E 03:08:09 51° E 03:12:11 10° NE visible
23 Oct 6.2 04:48:07 15° W 04:50:19 19° NW 04:53:43 10° N visible
24 Oct 7.3 02:27:40 19° ENE 02:27:40 19° ENE 02:29:17 10° NE visible
24 Oct 5.6 04:07:38 32° NW 04:07:38 32° NW 04:11:47 10° N visible
25 Oct 6.0 03:26:57 32° N 03:26:57 32° N 03:29:35 10° NNE visible
26 Oct 7.2 02:46:09 17° NNE 02:46:09 17° NNE 02:47:09 10° NNE visible
26 Oct 6.6 04:26:05 14° NW 04:26:05 14° NW 04:27:55 10° NNW visible
